Weather History for Rockford, IL

Change the Weather History Date:

Tuesday, June 10, 2014

  Actual Average Record
Temperature  
Mean Temperature 64 °F 68 °F  
Max Temperature 68 °F 80 °F 98 °F (1933)
Min Temperature 59 °F 57 °F 37 °F (1913)
Degree Days  
Heating Degree Days 1 1  
Month to date heating degree days 7 19  
Since 1 June heating degree days 7 19  
Since 1 July heating degree days 7676 6557  
Cooling Degree Days 0 5  
Month to date cooling degree days 42 38  
Year to date cooling degree days 125 93  
Since 1 June cooling degree days 42 38  
Growing Degree Days 14 (Base 50)    
Moisture  
Dew Point 53 °F    
Average Humidity 73    
Maximum Humidity 90    
Minimum Humidity 55    
Precipitation  
Precipitation 0.19 in 0.16 in 3.32 in (1967)
Month to date precipitation 1.03 1.63  
Year to date precipitation 11.00 14.10  
Snow  
Snow 0.00 in 0.00 in 0.00 in ()
Month to date snowfall 0.0 0.0  
Since 1 June snowfall 0.0 0.0  
Since 1 July snowfall 56.9 36.7  
Snow Depth 0.00 in    
Sea Level Pressure  
Sea Level Pressure 29.90 in    
Wind  
Wind Speed 9 mph (NE)    
Max Wind Speed 18 mph    
Max Gust Speed 24 mph    
Visibility 8 miles    
Events Rain    
T = Trace of Precipitation, MM = Missing Value Source: NWS Daily Summary

Daily Weather History Graph

Daily Weather History Graph

Search for Another Location

Airport:

Trip Planner

Search our weather history database for the weather conditions in past years. The results will help you decide how hot, cold, wet, or windy it might be!

Date:

Astronomy

Jun. 10, 2014 Rise Set
Actual Time 5:19 AM CDT 8:32 PM CDT
Civil Twilight 4:45 AM CDT 9:06 PM CDT
Nautical Twilight 4:01 AM CDT 9:50 PM CDT
Astronomical Twilight 3:07 AM CDT 10:44 PM CDT
Moon 5:54 PM CDT (6/10) 3:28 AM CDT (6/10)
Length of Visible Light 16h 21m
Length of Day
15h 12m
Waxing Gibbous, 92% of the Moon is Illuminated
Jun 10
Waxing Gibbous
Jun 12
Full
Jun 19
Last Quarter
Jun 27
New
Jul 5
First Quarter

Hourly Weather History & Observations

Time (CDT) Temp. Dew Point Humidity Pressure Visibility Wind Dir Wind Speed Gust Speed Precip Events Conditions
12:54 AM 61.0 °F 45.0 °F 56% 29.95 in 10.0 mi ENE 8.1 mph - N/A   Overcast
1:54 AM 60.1 °F 45.0 °F 57% 29.95 in 10.0 mi NE 4.6 mph - N/A   Overcast
2:54 AM 60.1 °F 45.0 °F 57% 29.94 in 10.0 mi ENE 6.9 mph - N/A   Overcast
3:54 AM 59.0 °F 45.0 °F 60% 29.92 in 10.0 mi ENE 6.9 mph - N/A   Overcast
4:54 AM 59.0 °F 46.0 °F 62% 29.92 in 10.0 mi ENE 5.8 mph - N/A   Overcast
5:54 AM 59.0 °F 46.0 °F 62% 29.91 in 10.0 mi NE 5.8 mph - N/A   Overcast
6:54 AM 60.1 °F 46.9 °F 62% 29.91 in 10.0 mi NE 8.1 mph - N/A   Overcast
7:54 AM 61.0 °F 48.0 °F 62% 29.92 in 10.0 mi NE 8.1 mph - N/A   Overcast
8:54 AM 62.1 °F 50.0 °F 65% 29.94 in 10.0 mi East 6.9 mph - N/A   Overcast
9:54 AM 62.6 °F 53.6 °F 72% 29.93 in 10.0 mi NE 9.2 mph - N/A Rain Light Rain
10:54 AM 64.9 °F 54.0 °F 68% 29.93 in 10.0 mi ENE 8.1 mph - 0.00 in Rain Light Rain
11:54 AM 66.2 °F 55.4 °F 68% 29.94 in 10.0 mi ENE 8.1 mph - N/A Rain Light Rain
12:54 PM 66.0 °F 55.9 °F 70% 29.92 in 10.0 mi NE 10.4 mph - 0.00 in Rain Light Rain
1:54 PM 68.0 °F 57.2 °F 68% 29.93 in 9.0 mi NE 8.1 mph - N/A Rain Light Rain
2:54 PM 68.0 °F 59.0 °F 73% 29.91 in 9.0 mi NE 9.2 mph - 0.01 in Rain Light Rain
3:54 PM 68.0 °F 57.2 °F 68% 29.90 in 10.0 mi NE 10.4 mph - N/A Rain Light Rain
4:54 PM 68.0 °F 57.0 °F 68% 29.88 in 10.0 mi NE 11.5 mph - 0.00 in   Overcast
5:54 PM 66.9 °F 55.9 °F 68% 29.87 in 10.0 mi NE 10.4 mph - N/A   Overcast
6:54 PM 63.0 °F 57.0 °F 81% 29.87 in 5.0 mi NE 10.4 mph 19.6 mph 0.02 in Rain Light Rain
7:42 PM 61.0 °F 57.9 °F 90% 29.87 in 2.5 mi NE 10.4 mph - 0.06 in Rain Light Rain
7:54 PM 61.0 °F 57.0 °F 87% 29.86 in 2.5 mi NE 11.5 mph - 0.09 in Rain Light Rain
8:38 PM 61.0 °F 57.9 °F 90% 29.85 in 3.0 mi NE 15.0 mph - 0.04 in   Light Drizzle
8:54 PM 61.0 °F 57.9 °F 90% 29.85 in 3.0 mi NE 13.8 mph - 0.05 in   Light Drizzle
9:54 PM 60.8 °F 57.2 °F 88% 29.85 in 7.0 mi NE 12.7 mph - N/A   Light Drizzle
10:54 PM 61.0 °F 57.0 °F 87% 29.83 in 8.0 mi NE 13.8 mph - 0.00 in   Overcast
11:54 PM 61.0 °F 57.0 °F 87% 29.80 in 10.0 mi NE 13.8 mph - 0.00 in Rain Light Rain